Lid_Strength_Index
6 7 9 8 6 5 4 4 4 4 3 4 5 2 2 0 -0 -0 -0 -1 -1 -1 -1 -1 -1 -1 -1 -1 -1 -1 -1 -1
7 8 6 6 5 5 4 4 3 3 5 3 1 2 1 0 -0 -0 -0 -1 -1 -1 -1 -1 -1 -1 -1 -1 -1 -1 -1 -1
8 8 6 5 4 4 5 4 4 4 5 4 2 1 0 0 -0 0 -0 -1 -1 -1 -1 -1 -1 -1 -1 -1 -1 -1 -1 -2
9 8 6 5 4 4 4 4 4 4 4 4 1 1 1 0 0 -0 -0 -1 -1 -1 -1 -1 -1 -1 -1 -1 -1 -1 -1 -1
8 7 7 5 4 5 4 4 4 3 5 3 2 1 0 0 -0 -0 -0 -0 -1 -1 -1 -1 -1 -1 -1 -1 -1 -1 -1 -1
8 9 8 5 4 3 4 4 2 3 5 5 2 1 0 0 -0 -0 -0 -0 -0 -1 -1 -1 -1 -1 -1 -1 -1 -1 -1 -1
8 8 8 6 6 4 3 3 3 3 3 2 1 1 1 1 1 0 0 -0 -0 -0 -1 -1 -1 -1 -1 -1 -1 -1 -1 -1
6 5 6 6 6 5 4 4 4 3 2 2 1 1 2 2 2 1 1 0 -0 -1 -1 -1 -1 -1 -1 -1 -1 -1 -1 -2
5 4 4 5 5 4 4 5 4 4 3 3 2 2 2 2 2 1 1 0 -0 -1 -1 -1 -0 -1 -1 -1 -1 -1 -2 -2
5 4 5 5 4 5 4 4 3 2 2 2 2 2 2 2 1 1 1 0 -0 -0 -0 -1 -1 -0 -1 -0 -1 -0 -1 -2
4 4 4 4 5 5 5 3 2 2 2 2 2 2 1 1 1 1 1 0 -0 -1 -0 -0 -0 -0 -0 -0 -0 -1 -1 -1
5 5 4 5 5 5 4 3 3 3 3 2 3 2 2 1 1 1 0 0 -0 -0 -1 -0 -0 -0 -0 -1 -1 -1 -1 -1
5 6 6 5 7 7 4 3 3 3 3 2 2 2 2 1 1 0 0 -0 -0 -1 -1 -0 -1 -0 -0 -0 -1 -0 -0 -1
7 5 5 6 9 6 4 4 4 4 3 3 2 2 1 1 1 0 0 -0 -0 -0 -1 -1 -1 -1 -0 -0 -0 -0 -1 -1
8 5 5 6 8 6 5 4 4 4 4 3 3 2 1 1 1 0 -0 -0 -0 -1 -0 -1 -1 -1 -1 -1 -0 -0 -1 -0
9 6 6 7 7 5 5 5 5 4 4 3 3 3 2 1 1 0 -0 -0 -0 -0 -1 -1 -0 -1 -0 -0 -0 -0 -0 -0
8 6 6 7 7 6 5 5 5 4 4 3 3 2 2 1 1 1 0 0 0 0 -0 0 1 1 1 1 1 0 -0 -1
9 7 7 7 7 6 5 5 5 4 4 4 3 3 2 1 1 1 1 0 0 0 0 0 0 0 0 0 0 0 -0 -0
10 8 6 7 8 7 5 5 4 4 3 3 3 3 2 2 2 1 1 1 1 0 0 0 -0 -0 0 0 0 1 1 1
10 10 12 7 12 8 7 6 5 5 4 4 3 3 2 2 2 2 1 1 0 0 0 0 -0 0 1 2 2 1 1 0